www.pogodaiklimat.ru

Погода и климат >> Архив погоды >> Уоллис и Футуна >> Остров Футуна


ПОГОДА на Острове Футуна

  • Прогноз погоды на Острове Футуна
  • Монитор погоды на Острове Футуна

АРХИВ ПОГОДЫ на Острове Футуна

Время (UTC), дата Ветер
(напр.,м/с)
 
Видим.   Явления Облачность Т
(С)
Тd
(С)
f
(%)
Тe
(С)
Тes
(С)
Комфортность P
(гПа)
Po
(гПа)
Тmin
(С)
Tmax
(С)
R
(мм)
R24
(мм)
S
(см)
15 18.06 СВ 1 н/о н/о +26.1 +22 +22 комфорт 1006.0 +26.0 +28.4 0.2
18 18.06 СВ 1 н/о н/о +26.0 +22 +22 комфорт 1006.8 +26.0 +27.0 0.2
00 19.06 ЮВ 1 н/о н/о +29.4 +24 +24 комфорт 1007.2
03 19.06 ЮВ 1 н/о н/о +28.4 +23 +23 комфорт 1005.5
06 19.06 В 1 н/о н/о +26.7 +22 +22 комфорт 1006.5 0.4
09 19.06 СВ 1 н/о н/о +26.4 +22 +22 комфорт 1007.9 +26.2 +30.0
12 19.06 СВ 1 н/о н/о +26.1 +22 +22 комфорт 1007.8 +26.0 +29.2 1
15 19.06 В 1 н/о н/о +26.3 +22 +22 комфорт 1006.4 +25.9 +28.4
18 19.06 ЮВ 2 н/о н/о +26.7 +22 +22 комфорт 1007.2 +25.9 +26.9
21 19.06 ЮВ 1 н/о н/о +29.0 +24 +24 комфорт 1008.5 +25.9 +30.0
00 20.06 С 1 н/о н/о +29.4 +24 +24 комфорт 1007.2 +25.9 +29.6
03 20.06 ЮВ 2 н/о н/о +28.0 +23 +23 комфорт 1005.7 +25.9 +29.8
06 20.06 ЮВ 2 н/о н/о +26.7 +22 +22 комфорт 1006.4 +25.9 +29.8
09 20.06 ЮВ 2 н/о н/о +26.8 +22 +22 комфорт 1007.9 +25.9 +29.8
12 20.06 ЮВ 1 н/о н/о +26.1 +22 +22 комфорт 1007.7 +25.9 +29.8
15 20.06 В 2 н/о н/о +26.5 +22 +22 комфорт 1006.5 +25.7 +29.8
18 20.06 В 1 н/о н/о +25.7 +21 +21 комфорт 1006.9 +25.1 +29.8
21 20.06 В 1 н/о н/о +28.7 +24 +24 комфорт 1007.9 +25.1 +29.8
00 21.06 ЮВ 1 н/о н/о +29.4 +24 +24 комфорт 1006.5 +25.1 +29.9
03 21.06 ЮВ 1 н/о н/о +28.8 +24 +24 комфорт 1005.1 +25.1 +30.0
06 21.06 ЮВ 2 н/о н/о +26.8 +22 +22 комфорт 1006.5 +25.1 +30.0
09 21.06 ЮВ 2 н/о н/о +26.4 +22 +22 комфорт 1007.6 +25.1 +30.0
12 21.06 В 1 н/о н/о +26.7 +22 +22 комфорт 1007.0 +25.1 +30.0
15 21.06 В 1 н/о н/о +25.0 +21 +21 комфорт 1006.2 +25.0 +30.0 0.2
18 21.06 В 1 н/о н/о +24.7 +21 +21 комфорт 1006.9 +24.0 +30.0 1
00 22.06 В 2 н/о н/о +27.2 +22 +22 комфорт 1006.5
03 22.06 В 2 н/о н/о +26.4 +22 +22 комфорт 1005.0 0.2
06 22.06 В 2 н/о н/о +26.2 +22 +22 комфорт 1006.0
09 22.06 В 1 н/о н/о +26.2 +22 +22 комфорт 1007.2 +25.3 +28.8
12 22.06 В 1 н/о н/о +25.5 +21 +21 комфорт 1007.3 +25.3 +27.5
15 22.06 В 1 н/о н/о +26.1 +22 +22 комфорт 1006.8 +25.4 +27.3
18 22.06 В 1 н/о н/о +25.8 +21 +21 комфорт 1007.3 +25.4 +26.6
21 22.06 В 2 н/о н/о +28.9 +24 +24 комфорт 1008.8 +25.3 +28.9
00 23.06 В 2 н/о н/о +29.5 +24 +24 комфорт 1007.5 +25.3 +29.7
03 23.06 В 2 н/о н/о +28.0 +23 +23 комфорт 1006.7 +25.4 +30.1
06 23.06 В 1 н/о н/о +27.1 +22 +22 комфорт 1007.5 +25.4 +30.1
09 23.06 В 1 н/о н/о +27.2 +22 +22 комфорт 1008.8 +25.4 +30.1
12 23.06 В 2 н/о н/о +27.1 +22 +22 комфорт 1008.3 +25.4 +30.1
15 23.06 В 2 н/о н/о +27.4 +23 +23 комфорт 1007.4 +25.7 +30.1
18 23.06 В 1 н/о н/о +27.1 +22 +22 комфорт 1008.1 +25.7 +30.1
00 24.06 В 2 н/о н/о +28.4 +23 +23 комфорт 1009.2
03 24.06 В 2 н/о н/о +28.0 +23 +23 комфорт 1008.1
06 24.06 В 2 н/о н/о +27.8 +23 +23 комфорт 1009.3
09 24.06 В 2 н/о н/о +27.6 +23 +23 комфорт 1010.4 +27.5 +29.8
12 24.06 В 2 н/о н/о +27.1 +22 +22 комфорт 1010.3 +27.0 +28.7
15 24.06 В 1 н/о н/о +27.3 +23 +23 комфорт 1009.3 +26.7 +28.0
18 24.06 В 1 н/о н/о +26.1 +22 +22 комфорт 1010.4 +26.1 +28.0 2
21 24.06 В 2 н/о н/о +28.2 +23 +23 комфорт 1011.5 +26.1 +29.8
00 25.06 В 1 н/о н/о +29.0 +24 +24 комфорт 1010.4 +26.1 +29.6
03 25.06 В 1 н/о н/о +27.8 +23 +23 комфорт 1009.1 +26.1 +29.6
06 25.06 В 1 н/о н/о +27.4 +23 +23 комфорт 1009.4 +26.1 +29.6
09 25.06 В 1 н/о н/о +27.3 +23 +23 комфорт 1009.7 +26.1 +29.6
12 25.06 В 1 н/о н/о +27.2 +22 +22 комфорт 1008.4 +26.1 +29.6

 

Местоположение метеостанции Остров Футуна (Уоллис и Футуна): широта -14.31 долгота -178.12 высота над уровнем моря 36 м.

В архиве по умолчанию представлена погода на Острове Футуна за последнюю неделю. Архивные данные за месяц целиком и за предыдущие месяцы, начиная с января 2011 года, Вы можете получить, выбрав интересующий диапазон дат из раскрывающегося списка и нажав кнопку "Ввод!".


*Определитесь, кто Вы:
робот инопланетянин человек

Внимание! Время в таблицах - всемирное. Для получения местного времени необходимо прибавить поправку, которая равна 12 ч.

Смотрите также архив погоды в соседних городах и на ближайших метеорологических станциях:

Погода на Острове Увеа (Уоллис и Футуна) (240 км)
Погода на Острове Ниуафооу (Тонга) (303 км)
Погода на Лакемба (Фиджи) (442 км)
Погода в Аэропорту Матаахо (Тонга) (501 км)
Погода на Станции Mount Talu (Самоа) (590 км)
Погода на Станции Le Piu Tai (Самоа) (626 км)
Погода в Аэропорту Маота (Самоа) (636 км)
Погода в Аэропорту Вавау (Тонга) (650 км)
Погода на Острове Маноно (Самоа) (650 км)
Погода в Аэропорту Фалеоло (Самоа) (660 км)

Пояснения к столбцам:

Ветер - указаны скорость ветра в м/с - средняя за 10 мин, порывы в срок и между сроками (в фигурных скобках) и направление, откуда дует ветер: С - северный, СВ - северо-восточный, В - восточный, ЮВ - юго-восточный, Ю - южный, ЮЗ - юго-западный, З - западный, СЗ - северо-западный.
Видимость - горизонтальная дальность видимости в метрах или километрах. При видимости от 1 до 10 км при отсутствии осадков обычно наблюдается дымка, при ухудшении видимости до 1 км и менее - туман. В сухую погоду видимость может ухудшаться дымом, пылью или мглою.
Явления - указаны атмосферные явления, наблюдавшиеся в срок или в последний час перед сроком; фигурными скобками обозначены явления, наблюдавшиеся между сроками (за 1-3 часа до срока); квадратными скобками обозначены град или гололедные отложения с указанием их диаметра в мм.
Облачность - указаны через наклонную черту общая и нижняя облачность в баллах и высота нижней границы облаков в метрах; квадратными скобками обозначены формы облаков: Ci - перистые, Cs - перисто-слоистые, Cc - перисто-кучевые, Ac - высококучевые, As - высокослоистые, Sc - слоисто-кучевые, Ns - слоисто-дождевые, Cu - кучевые, Cb - кучево-дождевые. Подробнее классификацию облаков см. в Атласе облаков (PDF).
T - Температура воздуха - температура, измеренная на высоте 2 м над землей.
Td - Температура точки росы - температура, при понижении до которой содержащийся в воздухе водяной пар достигнет насыщения.
f - Относительная влажность воздуха - влажноcть воздуха, измеренная на высоте 2 м над землей.
Te - Эффективная температура - температура, которую ощущает одетый по сезону человек в тени. Характеристика душности погоды. При расчете учитывается влияние влажности воздуха и скорости ветра на теплоощущения человека.
Tes - Эффективная температура на солнце - температура, которую ощущает человек, с поправкой на солнечный нагрев. Характеристика знойности погоды. Зависит от высоты солнца над горизонтом, облачности и скорости ветра. Ночью, в пасмурную погоду, а также при ветре 12 м/с и более поправка равна нулю.
P - Атмосферное давление - приведенное к уровню моря атмосферное давление.
Po - Атмосферное давление - измеренное на уровне метеостанции атмосферное давление.
Tmin - Минимальная температура - минимум температуры воздуха на высоте 2 м над землей.
Tmax - Максимальная температура - максимум температуры воздуха на высоте 2 м над землей.
R - Количество осадков - Количество выпавших осадков за период времени, мм. При наведении курсора мыши на число - период времени, за который выпало указанное количество осадков.
R24 - Количество осадков - Количество выпавших осадков за 24 часа, мм.
S - Снежный покров - Высота снежного покрова, см. При наведении курсора мыши на число - состояние снежного покрова и степень покрытия местности в баллах.